| time (UTC) | temp F | wind direction | speed MPH | gust MPH | rain 1hr in | rain 24hr in | rain mn in | humidity % | barometer mb |
| 20260508014052 | 60 | 200 | 1.0 | 2.0 | 0.00 | 0.00 | 0.00 | 61 | 1009.7 |
| 20260508013548 | 60 | 221 | 2.0 | 2.0 | 0.00 | 0.00 | 0.00 | 61 | 1010.0 |
| 20260508013045 | 60 | 211 | 2.0 | 2.0 | 0.00 | 0.00 | 0.00 | 61 | 1009.9 |
| 20260508012542 | 60 | 221 | 1.0 | 1.0 | 0.00 | 0.00 | 0.00 | 61 | 1009.8 |
| 20260508012040 | 60 | 213 | 1.0 | 1.0 | 0.00 | 0.00 | 0.00 | 61 | 1009.9 |
| 20260508011538 | 61 | 223 | 2.0 | 2.0 | 0.00 | 0.00 | 0.00 | 59 | 1009.9 |
| 20260508011035 | 62 | 223 | 2.0 | 3.0 | 0.00 | 0.00 | 0.00 | 57 | 1009.6 |
| 20260508010532 | 62 | 246 | 1.0 | 2.0 | 0.00 | 0.00 | 0.00 | 56 | 1009.7 |
| 20260508010030 | 62 | 232 | 1.0 | 1.0 | 0.00 | 0.00 | 0.00 | 55 | 1009.7 |
| 20260508005526 | 63 | 229 | 2.0 | 2.0 | 0.00 | 0.00 | 0.00 | 55 | 1009.7 |
| 20260508005023 | 63 | 203 | 2.0 | 3.0 | 0.00 | 0.00 | 0.00 | 54 | 1009.6 |
| 20260508004518 | 63 | 235 | 3.0 | 3.0 | 0.00 | 0.00 | 0.00 | 51 | 1009.8 |
| 20260508004015 | 64 | 240 | 2.0 | 2.0 | 0.00 | 0.00 | 0.00 | 51 | 1009.8 |
| 20260508003512 | 64 | 241 | 2.0 | 2.0 | 0.00 | 0.00 | 0.00 | 50 | 1009.7 |
| 20260508003009 | 64 | 225 | 2.0 | 2.0 | 0.00 | 0.00 | 0.00 | 50 | 1009.6 |
| 20260508002505 | 65 | 236 | 4.0 | 5.0 | 0.00 | 0.00 | 0.00 | 49 | 1009.4 |
| 20260508002003 | 65 | 253 | 3.0 | 5.0 | 0.00 | 0.00 | 0.00 | 48 | 1009.4 |
| 20260508001458 | 65 | 233 | 2.0 | 2.0 | 0.00 | 0.00 | 0.00 | 48 | 1009.3 |
| 20260508000955 | 66 | 235 | 3.0 | 3.0 | 0.00 | 0.00 | 0.00 | 46 | 1009.6 |
| 20260508000450 | 66 | 249 | 5.0 | 6.0 | 0.00 | 0.00 | 0.00 | 47 | 1009.6 |
| 20260507235948 | 66 | 259 | 6.0 | 8.0 | 0.00 | 0.00 | 0.00 | 46 | 1009.5 |
| 20260507235445 | 66 | 237 | 3.0 | 5.0 | 0.00 | 0.00 | 0.00 | 47 | 1009.6 |
| 20260507234942 | 67 | 238 | 10.0 | 15.0 | 0.00 | 0.00 | 0.00 | 45 | 1009.5 |
| 20260507234439 | 67 | 250 | 6.0 | 7.0 | 0.00 | 0.00 | 0.00 | 46 | 1009.7 |
| 20260507233935 | 67 | 242 | 3.0 | 5.0 | 0.00 | 0.00 | 0.00 | 46 | 1009.6 |
| 20260507233432 | 67 | 236 | 5.0 | 6.0 | 0.00 | 0.00 | 0.00 | 47 | 1009.7 |
| 20260507232930 | 67 | 225 | 4.0 | 6.0 | 0.00 | 0.00 | 0.00 | 45 | 1009.6 |
| 20260507232421 | 66 | 241 | 4.0 | 5.0 | 0.00 | 0.00 | 0.00 | 46 | 1009.6 |
| 20260507231918 | 67 | 253 | 5.0 | 7.0 | 0.00 | 0.00 | 0.00 | 45 | 1009.7 |
| 20260507231414 | 65 | 250 | 3.0 | 3.0 | 0.00 | 0.00 | 0.00 | 46 | 1010.0 |
| 20260507230911 | 66 | 234 | 4.0 | 6.0 | 0.00 | 0.00 | 0.00 | 46 | 1009.9 |
| 20260507230409 | 66 | 243 | 5.0 | 6.0 | 0.00 | 0.00 | 0.00 | 46 | 1010.0 |
| 20260507225908 | 66 | 265 | 7.0 | 10.0 | 0.00 | 0.00 | 0.00 | 44 | 1009.9 |
| 20260507225405 | 65 | 256 | 3.0 | 3.0 | 0.00 | 0.00 | 0.00 | 46 | 1010.1 |
| 20260507224901 | 65 | 211 | 4.0 | 6.0 | 0.00 | 0.00 | 0.00 | 47 | 1009.9 |
| 20260507224357 | 65 | 250 | 3.0 | 3.0 | 0.00 | 0.00 | 0.00 | 48 | 1010.2 |
| 20260507223854 | 66 | 222 | 4.0 | 6.0 | 0.00 | 0.00 | 0.00 | 48 | 1010.0 |
| 20260507223350 | 66 | 254 | 3.0 | 5.0 | 0.00 | 0.00 | 0.00 | 46 | 1010.2 |
| 20260507222847 | 67 | 218 | 3.0 | 3.0 | 0.00 | 0.00 | 0.00 | 46 | 1010.1 |
| 20260507222343 | 67 | 224 | 4.0 | 6.0 | 0.00 | 0.00 | 0.00 | 44 | 1010.0 |
| 20260507221841 | 67 | 215 | 7.0 | 10.0 | 0.00 | 0.00 | 0.00 | 43 | 1010.2 |
| 20260507221337 | 67 | 285 | 6.0 | 8.0 | 0.00 | 0.00 | 0.00 | 42 | 1010.0 |
| 20260507220833 | 68 | 240 | 12.0 | 17.0 | 0.00 | 0.00 | 0.00 | 42 | 1009.9 |
| 20260507220332 | 66 | 231 | 5.0 | 8.0 | 0.00 | 0.00 | 0.00 | 42 | 1010.0 |
| 20260507215827 | 66 | 276 | 4.0 | 5.0 | 0.00 | 0.00 | 0.00 | 43 | 1010.1 |
| 20260507215325 | 66 | 206 | 4.0 | 5.0 | 0.00 | 0.00 | 0.00 | 45 | 1010.1 |
| 20260507214822 | 66 | 245 | 7.0 | 9.0 | 0.00 | 0.00 | 0.00 | 45 | 1010.1 |
| 20260507214319 | 66 | 209 | 4.0 | 5.0 | 0.00 | 0.00 | 0.00 | 45 | 1010.0 |
| 20260507213814 | 66 | 228 | 5.0 | 7.0 | 0.00 | 0.00 | 0.00 | 43 | 1010.2 |
| 20260507213312 | 66 | 220 | 7.0 | 9.0 | 0.00 | 0.00 | 0.00 | 44 | 1010.0 |
| 20260507212808 | 66 | 240 | 9.0 | 13.0 | 0.00 | 0.00 | 0.00 | 41 | 1010.2 |
| 20260507212307 | 66 | 242 | 3.0 | 3.0 | 0.00 | 0.00 | 0.00 | 43 | 1010.2 |
| 20260507211801 | 67 | 254 | 9.0 | 13.0 | 0.00 | 0.00 | 0.00 | 40 | 1010.2 |
| 20260507211257 | 66 | 266 | 7.0 | 11.0 | 0.00 | 0.00 | 0.00 | 42 | 1010.4 |
| 20260507210754 | 66 | 224 | 9.0 | 13.0 | 0.00 | 0.00 | 0.00 | 42 | 1010.4 |
| 20260507210251 | 66 | 259 | 7.0 | 9.0 | 0.00 | 0.00 | 0.00 | 42 | 1010.3 |
| 20260507205748 | 66 | 250 | 5.0 | 7.0 | 0.00 | 0.00 | 0.00 | 42 | 1010.4 |
| 20260507205245 | 67 | 219 | 7.0 | 9.0 | 0.00 | 0.00 | 0.00 | 41 | 1010.5 |
| 20260507204741 | 68 | 224 | 5.0 | 6.0 | 0.00 | 0.00 | 0.00 | 43 | 1010.2 |
| 20260507204239 | 65 | 215 | 4.0 | 5.0 | 0.00 | 0.00 | 0.00 | 44 | 1010.6 |
| 20260507203736 | 66 | 219 | 5.0 | 7.0 | 0.00 | 0.00 | 0.00 | 45 | 1010.7 |
| 20260507203233 | 66 | 225 | 3.0 | 3.0 | 0.00 | 0.00 | 0.00 | 44 | 1010.7 |
| 20260507202730 | 66 | 239 | 5.0 | 6.0 | 0.00 | 0.00 | 0.00 | 44 | 1010.7 |
| 20260507202226 | 67 | 237 | 7.0 | 9.0 | 0.00 | 0.00 | 0.00 | 42 | 1010.9 |
| 20260507201721 | 66 | 272 | 3.0 | 5.0 | 0.00 | 0.00 | 0.00 | 45 | 1010.8 |
| 20260507201218 | 66 | 273 | 10.0 | 11.0 | 0.00 | 0.00 | 0.00 | 43 | 1010.9 |
| 20260507200714 | 66 | 248 | 5.0 | 7.0 | 0.00 | 0.00 | 0.00 | 43 | 1011.0 |
| 20260507200210 | 66 | 271 | 7.0 | 9.0 | 0.00 | 0.00 | 0.00 | 43 | 1011.0 |
| 20260507195707 | 68 | 264 | 8.0 | 14.0 | 0.00 | 0.00 | 0.00 | 42 | 1011.1 |
| 20260507195204 | 66 | 214 | 3.0 | 5.0 | 0.00 | 0.00 | 0.00 | 47 | 1011.2 |
| 20260507194701 | 65 | 236 | 4.0 | 6.0 | 0.00 | 0.00 | 0.00 | 46 | 1011.6 |
| 20260507194156 | 66 | 268 | 7.0 | 11.0 | 0.00 | 0.00 | 0.00 | 45 | 1011.3 |
| 20260507193654 | 66 | 244 | 3.0 | 5.0 | 0.00 | 0.00 | 0.00 | 44 | 1011.1 |
| 20260507193151 | 66 | 226 | 3.0 | 5.0 | 0.00 | 0.00 | 0.00 | 45 | 1011.3 |
| 20260507192646 | 67 | 268 | 2.0 | 2.0 | 0.00 | 0.00 | 0.00 | 46 | 1011.2 |
| 20260507192144 | 67 | 247 | 8.0 | 14.0 | 0.00 | 0.00 | 0.00 | 43 | 1011.2 |
| 20260507191639 | 67 | 273 | 3.0 | 3.0 | 0.00 | 0.00 | 0.00 | 46 | 1011.5 |
| 20260507191136 | 67 | 257 | 4.0 | 6.0 | 0.00 | 0.00 | 0.00 | 44 | 1011.6 |
| 20260507190634 | 66 | 226 | 4.0 | 6.0 | 0.00 | 0.00 | 0.00 | 45 | 1011.5 |
| 20260507190133 | 66 | 233 | 6.0 | 10.0 | 0.00 | 0.00 | 0.00 | 44 | 1011.7 |
| 20260507185630 | 66 | 267 | 8.0 | 10.0 | 0.00 | 0.00 | 0.00 | 44 | 1011.5 |
| 20260507185126 | 67 | 256 | 6.0 | 8.0 | 0.00 | 0.00 | 0.00 | 45 | 1011.5 |
| 20260507184625 | 67 | 224 | 4.0 | 5.0 | 0.00 | 0.00 | 0.00 | 43 | 1011.7 |
| 20260507184122 | 66 | 224 | 6.0 | 7.0 | 0.00 | 0.00 | 0.00 | 45 | 1011.8 |
| 20260507183618 | 67 | 250 | 8.0 | 16.0 | 0.00 | 0.00 | 0.00 | 43 | 1012.0 |
| 20260507183115 | 66 | 259 | 3.0 | 10.0 | 0.00 | 0.00 | 0.00 | 46 | 1012.0 |
| 20260507182612 | 66 | 255 | 9.0 | 14.0 | 0.00 | 0.00 | 0.00 | 43 | 1012.0 |
| 20260507182108 | 66 | 235 | 3.0 | 5.0 | 0.00 | 0.00 | 0.00 | 47 | 1011.9 |
| 20260507181605 | 64 | 240 | 5.0 | 8.0 | 0.00 | 0.00 | 0.00 | 46 | 1012.2 |
| 20260507181101 | 66 | 237 | 7.0 | 8.0 | 0.00 | 0.00 | 0.00 | 45 | 1012.2 |
| 20260507180558 | 66 | 257 | 4.0 | 6.0 | 0.00 | 0.00 | 0.00 | 46 | 1012.0 |
| 20260507180054 | 65 | 263 | 2.0 | 3.0 | 0.00 | 0.00 | 0.00 | 48 | 1012.3 |
| 20260507175550 | 66 | 270 | 9.0 | 11.0 | 0.00 | 0.00 | 0.00 | 45 | 1012.0 |
| 20260507175048 | 64 | 265 | 7.0 | 8.0 | 0.00 | 0.00 | 0.00 | 48 | 1012.4 |
| 20260507174545 | 65 | 223 | 7.0 | 8.0 | 0.00 | 0.00 | 0.00 | 46 | 1012.4 |
| 20260507174043 | 65 | 247 | 6.0 | 10.0 | 0.00 | 0.00 | 0.00 | 48 | 1012.3 |
| 20260507173540 | 65 | 267 | 9.0 | 14.0 | 0.00 | 0.00 | 0.00 | 45 | 1012.5 |
| 20260507173037 | 65 | 247 | 5.0 | 6.0 | 0.00 | 0.00 | 0.00 | 47 | 1012.4 |
| 20260507172532 | 64 | 251 | 5.0 | 8.0 | 0.00 | 0.00 | 0.00 | 48 | 1012.7 |
| 20260507172030 | 64 | 247 | 6.0 | 7.0 | 0.00 | 0.00 | 0.00 | 48 | 1012.7 |
| 20260507171525 | 64 | 259 | 6.0 | 8.0 | 0.00 | 0.00 | 0.00 | 48 | 1012.7 |
| 20260507171023 | 64 | 238 | 6.0 | 8.0 | 0.00 | 0.00 | 0.00 | 49 | 1012.7 |
| 20260507170519 | 64 | 231 | 9.0 | 15.0 | 0.00 | 0.00 | 0.00 | 46 | 1012.9 |
| 20260507170016 | 64 | 271 | 12.0 | 15.0 | 0.00 | 0.00 | 0.00 | 47 | 1013.1 |
| 20260507165512 | 63 | 221 | 6.0 | 8.0 | 0.00 | 0.00 | 0.00 | 49 | 1013.1 |
| 20260507165009 | 63 | 252 | 7.0 | 9.0 | 0.00 | 0.00 | 0.00 | 50 | 1013.2 |
| 20260507164505 | 62 | 263 | 6.0 | 8.0 | 0.00 | 0.00 | 0.00 | 50 | 1013.1 |
| 20260507164002 | 62 | 291 | 6.0 | 8.0 | 0.00 | 0.00 | 0.00 | 51 | 1013.4 |
| 20260507163459 | 62 | 281 | 5.0 | 7.0 | 0.00 | 0.00 | 0.00 | 52 | 1013.5 |
| 20260507162956 | 63 | 268 | 4.0 | 6.0 | 0.00 | 0.00 | 0.00 | 54 | 1013.5 |
| 20260507162451 | 62 | 243 | 12.0 | 15.0 | 0.00 | 0.00 | 0.00 | 51 | 1013.6 |
| 20260507161949 | 63 | 219 | 7.0 | 8.0 | 0.00 | 0.00 | 0.00 | 51 | 1013.4 |
| 20260507161445 | 62 | 239 | 3.0 | 3.0 | 0.00 | 0.00 | 0.00 | 52 | 1013.5 |
| 20260507160942 | 63 | 260 | 5.0 | 7.0 | 0.00 | 0.00 | 0.00 | 49 | 1013.6 |
| 20260507160438 | 62 | 232 | 6.0 | 8.0 | 0.00 | 0.00 | 0.00 | 50 | 1013.4 |
| 20260507155933 | 62 | 250 | 7.0 | 9.0 | 0.00 | 0.00 | 0.00 | 51 | 1013.5 |
| 20260507155430 | 61 | 256 | 5.0 | 8.0 | 0.00 | 0.00 | 0.00 | 53 | 1013.5 |
| 20260507154927 | 61 | 258 | 10.0 | 16.0 | 0.00 | 0.00 | 0.00 | 50 | 1013.5 |
| 20260507154423 | 61 | 244 | 6.0 | 9.0 | 0.00 | 0.00 | 0.00 | 51 | 1013.7 |
| 20260507153921 | 61 | 244 | 4.0 | 5.0 | 0.00 | 0.00 | 0.00 | 53 | 1013.8 |
| 20260507153417 | 61 | 235 | 4.0 | 7.0 | 0.00 | 0.00 | 0.00 | 53 | 1013.8 |
| 20260507152914 | 60 | 246 | 3.0 | 3.0 | 0.00 | 0.00 | 0.00 | 55 | 1013.8 |
| 20260507152410 | 60 | 272 | 9.0 | 10.0 | 0.00 | 0.00 | 0.00 | 53 | 1013.8 |
| 20260507151906 | 60 | 257 | 7.0 | 9.0 | 0.00 | 0.00 | 0.00 | 53 | 1013.8 |
| 20260507151403 | 60 | 215 | 5.0 | 6.0 | 0.00 | 0.00 | 0.00 | 54 | 1013.7 |
| 20260507150900 | 61 | 258 | 2.0 | 2.0 | 0.00 | 0.00 | 0.00 | 56 | 1013.8 |
| 20260507150356 | 59 | 212 | 2.0 | 2.0 | 0.00 | 0.00 | 0.00 | 59 | 1013.8 |
| 20260507145852 | 59 | 268 | 6.0 | 7.0 | 0.00 | 0.00 | 0.00 | 57 | 1013.7 |
| 20260507145349 | 59 | 221 | 4.0 | 5.0 | 0.00 | 0.00 | 0.00 | 57 | 1013.9 |
| 20260507144846 | 58 | 204 | 6.0 | 7.0 | 0.00 | 0.00 | 0.00 | 57 | 1014.1 |
| 20260507144343 | 57 | 269 | 6.0 | 8.0 | 0.00 | 0.00 | 0.00 | 58 | 1013.9 |
| 20260507143840 | 57 | 244 | 6.0 | 8.0 | 0.00 | 0.00 | 0.00 | 58 | 1014.1 |
| 20260507143337 | 58 | 256 | 5.0 | 7.0 | 0.00 | 0.00 | 0.00 | 57 | 1014.0 |
| 20260507142833 | 57 | 191 | 3.0 | 3.0 | 0.00 | 0.00 | 0.00 | 58 | 1014.2 |
| 20260507142330 | 56 | 232 | 3.0 | 5.0 | 0.00 | 0.00 | 0.00 | 60 | 1014.3 |
| 20260507141826 | 55 | 244 | 6.0 | 7.0 | 0.00 | 0.00 | 0.00 | 60 | 1014.1 |
| 20260507141323 | 55 | 208 | 3.0 | 3.0 | 0.00 | 0.00 | 0.00 | 59 | 1014.4 |
| 20260507140820 | 55 | 214 | 6.0 | 8.0 | 0.00 | 0.00 | 0.00 | 59 | 1014.3 |
| 20260507140316 | 55 | 229 | 6.0 | 7.0 | 0.00 | 0.00 | 0.00 | 59 | 1014.5 |
| 20260507135815 | 55 | 240 | 4.0 | 7.0 | 0.00 | 0.00 | 0.00 | 58 | 1014.6 |
| 20260507135311 | 54 | 220 | 3.0 | 5.0 | 0.00 | 0.00 | 0.00 | 59 | 1014.6 |
| 20260507134808 | 54 | 209 | 7.0 | 9.0 | 0.00 | 0.00 | 0.00 | 57 | 1014.7 |
| 20260507134304 | 54 | 213 | 3.0 | 5.0 | 0.00 | 0.00 | 0.00 | 59 | 1014.6 |
| 20260507133800 | 53 | 216 | 4.0 | 5.0 | 0.00 | 0.00 | 0.00 | 58 | 1014.5 |
| 20260507133256 | 53 | 223 | 3.0 | 3.0 | 0.00 | 0.00 | 0.00 | 59 | 1014.8 |
| 20260507132754 | 53 | 241 | 3.0 | 5.0 | 0.00 | 0.00 | 0.00 | 57 | 1014.8 |
| 20260507132251 | 53 | 238 | 3.0 | 6.0 | 0.00 | 0.00 | 0.00 | 58 | 1014.7 |
| 20260507131748 | 52 | 227 | 5.0 | 6.0 | 0.00 | 0.00 | 0.00 | 59 | 1014.7 |
| 20260507131245 | 52 | 202 | 4.0 | 5.0 | 0.00 | 0.00 | 0.00 | 59 | 1014.9 |
| 20260507130741 | 51 | 194 | 4.0 | 6.0 | 0.00 | 0.00 | 0.00 | 59 | 1014.8 |
| 20260507130239 | 51 | 218 | 4.0 | 5.0 | 0.00 | 0.00 | 0.00 | 61 | 1014.8 |
| 20260507125738 | 51 | 219 | 2.0 | 2.0 | 0.00 | 0.00 | 0.00 | 62 | 1014.7 |
| 20260507125235 | 50 | 217 | 3.0 | 5.0 | 0.00 | 0.00 | 0.00 | 63 | 1014.9 |
| 20260507124731 | 49 | 217 | 3.0 | 5.0 | 0.00 | 0.00 | 0.00 | 65 | 1014.8 |
| 20260507124228 | 49 | 231 | 4.0 | 5.0 | 0.00 | 0.00 | 0.00 | 65 | 1014.9 |
| 20260507123727 | 48 | 208 | 4.0 | 5.0 | 0.00 | 0.00 | 0.00 | 66 | 1014.8 |
| 20260507123224 | 48 | 227 | 4.0 | 5.0 | 0.00 | 0.00 | 0.00 | 66 | 1014.8 |
| 20260507122719 | 48 | 243 | 2.0 | 2.0 | 0.00 | 0.00 | 0.00 | 68 | 1014.8 |
| 20260507122215 | 47 | 235 | 2.0 | 2.0 | 0.00 | 0.00 | 0.00 | 68 | 1014.6 |
| 20260507121711 | 46 | 233 | 2.0 | 2.0 | 0.00 | 0.00 | 0.00 | 69 | 1014.8 |
| 20260507121207 | 46 | 245 | 2.0 | 2.0 | 0.00 | 0.00 | 0.00 | 70 | 1014.7 |
| 20260507120703 | 46 | 205 | 1.0 | 2.0 | 0.00 | 0.00 | 0.00 | 70 | 1014.7 |
| 20260507120201 | 45 | 193 | 4.0 | 5.0 | 0.00 | 0.00 | 0.00 | 71 | 1014.7 |
| 20260507115656 | 45 | 187 | 2.0 | 3.0 | 0.00 | 0.00 | 0.00 | 72 | 1014.8 |
| 20260507115152 | 44 | 217 | 3.0 | 3.0 | 0.00 | 0.00 | 0.00 | 74 | 1014.8 |
| 20260507114648 | 44 | 212 | 2.0 | 2.0 | 0.00 | 0.00 | 0.00 | 75 | 1014.9 |
| 20260507114146 | 43 | 230 | 2.0 | 3.0 | 0.00 | 0.00 | 0.00 | 76 | 1014.9 |
| 20260507113643 | 42 | 222 | 2.0 | 2.0 | 0.00 | 0.00 | 0.00 | 77 | 1014.9 |
| 20260507113140 | 42 | 226 | 2.0 | 2.0 | 0.00 | 0.00 | 0.00 | 78 | 1014.8 |
| 20260507112638 | 42 | 218 | 2.0 | 2.0 | 0.00 | 0.00 | 0.00 | 77 | 1015.1 |
| 20260507112134 | 42 | 223 | 2.0 | 2.0 | 0.00 | 0.00 | 0.00 | 78 | 1015.1 |
| 20260507111631 | 41 | 225 | 1.0 | 2.0 | 0.00 | 0.00 | 0.00 | 79 | 1015.2 |
| 20260507111128 | 41 | 227 | 1.0 | 1.0 | 0.00 | 0.00 | 0.00 | 79 | 1015.2 |
| 20260507110624 | 40 | 227 | 1.0 | 1.0 | 0.00 | 0.00 | 0.00 | 80 | 1015.2 |
| 20260507110121 | 40 | 224 | 0.0 | 0.0 | 0.00 | 0.00 | 0.00 | 80 | 1015.2 |
| 20260507105618 | 40 | 224 | 1.0 | 1.0 | 0.00 | 0.00 | 0.00 | 80 | 1015.0 |
| 20260507105114 | 40 | 224 | 0.0 | 1.0 | 0.00 | 0.00 | 0.00 | 80 | 1015.0 |
| 20260507104612 | 40 | 224 | 0.0 | 1.0 | 0.00 | 0.00 | 0.00 | 80 | 1015.0 |
| 20260507104108 | 40 | 224 | 0.0 | 1.0 | 0.00 | 0.00 | 0.00 | 79 | 1015.0 |
| 20260507103604 | 40 | 224 | 1.0 | 1.0 | 0.00 | 0.00 | 0.00 | 79 | 1014.9 |
| 20260507103101 | 40 | 224 | 1.0 | 1.0 | 0.00 | 0.00 | 0.00 | 79 | 1015.1 |
| 20260507102557 | 40 | 225 | 0.0 | 1.0 | 0.00 | 0.00 | 0.00 | 80 | 1014.9 |
| 20260507102053 | 40 | 219 | 0.0 | 0.0 | 0.00 | 0.00 | 0.00 | 80 | 1015.0 |
| 20260507101548 | 40 | 219 | 0.0 | 1.0 | 0.00 | 0.00 | 0.00 | 80 | 1015.0 |
| 20260507101045 | 40 | 219 | 0.0 | 1.0 | 0.00 | 0.00 | 0.00 | 79 | 1015.0 |
| 20260507100543 | 40 | 219 | 1.0 | 1.0 | 0.00 | 0.00 | 0.00 | 80 | 1014.9 |
| 20260507100041 | 40 | 219 | 1.0 | 1.0 | 0.00 | 0.00 | 0.00 | 80 | 1015.2 |
| 20260507095538 | 40 | 219 | 1.0 | 1.0 | 0.00 | 0.00 | 0.00 | 81 | 1015.2 |
| 20260507095035 | 40 | 219 | 0.0 | 1.0 | 0.00 | 0.00 | 0.00 | 82 | 1015.1 |
| 20260507094531 | 40 | 218 | 0.0 | 0.0 | 0.00 | 0.00 | 0.00 | 82 | 1015.2 |
| 20260507094028 | 40 | 218 | 0.0 | 0.0 | 0.00 | 0.00 | 0.00 | 82 | 1015.1 |
| 20260507093526 | 40 | 218 | 0.0 | 0.0 | 0.00 | 0.00 | 0.00 | 82 | 1015.3 |
| 20260507093024 | 40 | 218 | 0.0 | 0.0 | 0.00 | 0.00 | 0.00 | 82 | 1015.2 |
| 20260507092520 | 40 | 218 | 0.0 | 0.0 | 0.00 | 0.00 | 0.00 | 82 | 1015.1 |
| 20260507092017 | 40 | 218 | 0.0 | 1.0 | 0.00 | 0.00 | 0.00 | 82 | 1015.2 |
| 20260507091514 | 40 | 218 | 1.0 | 1.0 | 0.00 | 0.00 | 0.00 | 83 | 1015.2 |
| 20260507091010 | 40 | 218 | 0.0 | 0.0 | 0.00 | 0.00 | 0.00 | 84 | 1015.3 |
| 20260507090506 | 40 | 220 | 0.0 | 0.0 | 0.00 | 0.00 | 0.00 | 84 | 1015.3 |
| 20260507090003 | 40 | 220 | 0.0 | 0.0 | 0.00 | 0.00 | 0.00 | 84 | 1015.3 |
| 20260507085500 | 40 | 220 | 0.0 | 0.0 | 0.00 | 0.00 | 0.00 | 83 | 1015.2 |
| 20260507084956 | 40 | 220 | 0.0 | 0.0 | 0.00 | 0.00 | 0.00 | 82 | 1015.4 |
| 20260507084453 | 40 | 220 | 0.0 | 0.0 | 0.00 | 0.00 | 0.00 | 82 | 1015.4 |
| 20260507083950 | 40 | 220 | 0.0 | 0.0 | 0.00 | 0.00 | 0.00 | 82 | 1015.6 |
| 20260507083446 | 40 | 220 | 0.0 | 0.0 | 0.00 | 0.00 | 0.00 | 81 | 1015.5 |
| 20260507082943 | 41 | 220 | 0.0 | 0.0 | 0.00 | 0.00 | 0.00 | 81 | 1015.4 |
| 20260507082439 | 41 | 220 | 0.0 | 0.0 | 0.00 | 0.00 | 0.00 | 81 | 1015.4 |
| 20260507081936 | 41 | 220 | 1.0 | 1.0 | 0.00 | 0.00 | 0.00 | 80 | 1015.6 |
| 20260507081432 | 41 | 220 | 0.0 | 0.0 | 0.00 | 0.00 | 0.00 | 80 | 1015.5 |
| 20260507080929 | 41 | 220 | 1.0 | 1.0 | 0.00 | 0.00 | 0.00 | 79 | 1015.8 |
| 20260507080425 | 42 | 220 | 1.0 | 1.0 | 0.00 | 0.00 | 0.00 | 78 | 1015.8 |
| 20260507075920 | 42 | 219 | 1.0 | 1.0 | 0.00 | 0.00 | 0.00 | 77 | 1015.9 |
| 20260507075417 | 42 | 219 | 0.0 | 0.0 | 0.00 | 0.00 | 0.00 | 77 | 1015.8 |
| 20260507074914 | 42 | 219 | 0.0 | 0.0 | 0.00 | 0.00 | 0.00 | 76 | 1015.8 |
| 20260507074410 | 42 | 219 | 0.0 | 0.0 | 0.00 | 0.00 | 0.00 | 76 | 1015.9 |
| 20260507073908 | 43 | 219 | 0.0 | 1.0 | 0.00 | 0.00 | 0.00 | 75 | 1015.7 |
| 20260507073404 | 42 | 218 | 1.0 | 1.0 | 0.00 | 0.00 | 0.00 | 75 | 1015.8 |
| 20260507072902 | 42 | 218 | 1.0 | 1.0 | 0.00 | 0.00 | 0.00 | 75 | 1015.9 |
| 20260507072359 | 42 | 218 | 1.0 | 1.0 | 0.00 | 0.00 | 0.00 | 75 | 1015.9 |
| 20260507071856 | 43 | 217 | 1.0 | 1.0 | 0.00 | 0.00 | 0.00 | 75 | 1016.1 |
| 20260507071353 | 43 | 217 | 1.0 | 1.0 | 0.00 | 0.00 | 0.00 | 75 | 1016.0 |
| 20260507070849 | 43 | 217 | 1.0 | 1.0 | 0.00 | 0.00 | 0.00 | 75 | 1016.0 |
| 20260507070347 | 43 | 219 | 1.0 | 2.0 | 0.00 | 0.00 | 0.00 | 74 | 1016.0 |
| 20260507065844 | 43 | 218 | 1.0 | 1.0 | 0.00 | 0.00 | 0.00 | 76 | 1016.1 |
| 20260507065340 | 43 | 219 | 1.0 | 1.0 | 0.00 | 0.00 | 0.00 | 74 | 1016.0 |
| 20260507064837 | 43 | 222 | 2.0 | 2.0 | 0.00 | 0.00 | 0.00 | 75 | 1016.2 |
| 20260507064336 | 43 | 226 | 1.0 | 1.0 | 0.00 | 0.00 | 0.00 | 74 | 1016.0 |
| 20260507063833 | 43 | 227 | 0.0 | 1.0 | 0.00 | 0.00 | 0.00 | 74 | 1016.0 |
| 20260507063330 | 43 | 228 | 1.0 | 1.0 | 0.00 | 0.00 | 0.00 | 75 | 1016.1 |
| 20260507062826 | 43 | 228 | 0.0 | 1.0 | 0.00 | 0.00 | 0.00 | 74 | 1016.2 |
| 20260507062324 | 43 | 223 | 1.0 | 2.0 | 0.00 | 0.00 | 0.00 | 75 | 1016.3 |
| 20260507061822 | 43 | 222 | 1.0 | 1.0 | 0.00 | 0.00 | 0.00 | 79 | 1016.2 |
| 20260507061319 | 42 | 222 | 0.0 | 0.0 | 0.00 | 0.00 | 0.00 | 77 | 1016.5 |
| 20260507060818 | 42 | 222 | 1.0 | 1.0 | 0.00 | 0.00 | 0.00 | 79 | 1016.6 |
| 20260507060314 | 42 | 228 | 1.0 | 1.0 | 0.00 | 0.00 | 0.00 | 75 | 1016.7 |
| 20260507055811 | 43 | 228 | 0.0 | 0.0 | 0.00 | 0.00 | 0.00 | 75 | 1016.5 |
| 20260507055306 | 43 | 228 | 0.0 | 0.0 | 0.00 | 0.00 | 0.00 | 75 | 1016.6 |
| 20260507054803 | 42 | 228 | 1.0 | 1.0 | 0.00 | 0.00 | 0.00 | 74 | 1016.5 |
| 20260507054259 | 43 | 228 | 0.0 | 1.0 | 0.00 | 0.00 | 0.00 | 74 | 1016.6 |
| 20260507053756 | 42 | 228 | 0.0 | 0.0 | 0.00 | 0.00 | 0.00 | 75 | 1016.5 |
| 20260507053254 | 42 | 228 | 0.0 | 1.0 | 0.00 | 0.00 | 0.00 | 79 | 1016.6 |
| 20260507052753 | 43 | 228 | 1.0 | 1.0 | 0.00 | 0.00 | 0.00 | 78 | 1016.6 |
| 20260507052249 | 43 | 230 | 1.0 | 1.0 | 0.00 | 0.00 | 0.00 | 76 | 1016.7 |
| 20260507051747 | 44 | 244 | 0.0 | 1.0 | 0.00 | 0.00 | 0.00 | 71 | 1016.5 |
| 20260507051244 | 44 | 244 | 1.0 | 1.0 | 0.00 | 0.00 | 0.00 | 68 | 1016.6 |
| 20260507050740 | 44 | 244 | 1.0 | 1.0 | 0.00 | 0.00 | 0.00 | 67 | 1016.6 |
| 20260507050237 | 44 | 245 | 1.0 | 1.0 | 0.00 | 0.00 | 0.00 | 66 | 1016.5 |
| 20260507045734 | 44 | 244 | 0.0 | 0.0 | 0.00 | 0.00 | 0.00 | 65 | 1016.6 |
| 20260507045230 | 44 | 246 | 2.0 | 2.0 | 0.00 | 0.00 | 0.00 | 67 | 1016.8 |
| 20260507044728 | 44 | 244 | 0.0 | 0.0 | 0.00 | 0.00 | 0.00 | 69 | 1016.6 |
| 20260507044224 | 43 | 240 | 0.0 | 0.0 | 0.00 | 0.00 | 0.00 | 70 | 1016.6 |
| 20260507043720 | 43 | 233 | 0.0 | 0.0 | 0.00 | 0.00 | 0.00 | 74 | 1016.6 |
| 20260507043217 | 44 | 233 | 0.0 | 0.0 | 0.00 | 0.00 | 0.00 | 71 | 1016.8 |
| 20260507042713 | 44 | 233 | 0.0 | 0.0 | 0.00 | 0.00 | 0.00 | 72 | 1016.6 |
| 20260507042208 | 44 | 233 | 0.0 | 0.0 | 0.00 | 0.00 | 0.00 | 71 | 1016.6 |
| 20260507041706 | 44 | 239 | 0.0 | 0.0 | 0.00 | 0.00 | 0.00 | 68 | 1016.6 |
| 20260507041202 | 44 | 241 | 0.0 | 0.0 | 0.00 | 0.00 | 0.00 | 66 | 1016.7 |
| 20260507040700 | 44 | 241 | 0.0 | 0.0 | 0.00 | 0.00 | 0.00 | 66 | 1016.8 |
| 20260507040155 | 44 | 241 | 0.0 | 0.0 | 0.00 | 0.00 | 0.00 | 69 | 1016.8 |
| 20260507035652 | 43 | 241 | 0.0 | 0.0 | 0.00 | 0.00 | 0.00 | 70 | 1016.7 |
| 20260507035148 | 42 | 241 | 0.0 | 0.0 | 0.00 | 0.00 | 0.00 | 75 | 1016.9 |
| 20260507034645 | 43 | 241 | 0.0 | 0.0 | 0.00 | 0.00 | 0.00 | 76 | 1016.9 |
| 20260507034142 | 42 | 241 | 0.0 | 0.0 | 0.00 | 0.00 | 0.00 | 80 | 1016.8 |
| 20260507033641 | 42 | 241 | 0.0 | 0.0 | 0.00 | 0.00 | 0.00 | 80 | 1016.8 |
| 20260507033137 | 43 | 241 | 0.0 | 0.0 | 0.00 | 0.00 | 0.00 | 79 | 1016.9 |
| 20260507032635 | 43 | 238 | 0.0 | 0.0 | 0.00 | 0.00 | 0.00 | 75 | 1016.7 |
| 20260507032130 | 43 | 228 | 0.0 | 0.0 | 0.00 | 0.00 | 0.00 | 74 | 1016.7 |
| 20260507031628 | 43 | 228 | 0.0 | 0.0 | 0.00 | 0.00 | 0.00 | 76 | 1016.7 |
| 20260507031124 | 43 | 228 | 0.0 | 0.0 | 0.00 | 0.00 | 0.00 | 78 | 1016.7 |
| 20260507030621 | 44 | 228 | 0.0 | 0.0 | 0.00 | 0.00 | 0.00 | 75 | 1016.8 |
| 20260507030119 | 44 | 228 | 0.0 | 0.0 | 0.00 | 0.00 | 0.00 | 73 | 1016.5 |
| 20260507025616 | 45 | 228 | 0.0 | 0.0 | 0.00 | 0.00 | 0.00 | 70 | 1016.7 |
| 20260507025113 | 45 | 228 | 0.0 | 0.0 | 0.00 | 0.00 | 0.00 | 69 | 1016.6 |
| 20260507024611 | 45 | 228 | 0.0 | 0.0 | 0.00 | 0.00 | 0.00 | 71 | 1016.5 |
| 20260507024108 | 45 | 228 | 0.0 | 0.0 | 0.00 | 0.00 | 0.00 | 70 | 1016.6 |
| 20260507023603 | 45 | 228 | 0.0 | 0.0 | 0.00 | 0.00 | 0.00 | 69 | 1016.6 |
| 20260507023101 | 45 | 228 | 0.0 | 0.0 | 0.00 | 0.00 | 0.00 | 69 | 1016.5 |
| 20260507022557 | 45 | 226 | 0.0 | 0.0 | 0.00 | 0.00 | 0.00 | 66 | 1016.6 |
| 20260507022053 | 45 | 225 | 0.0 | 0.0 | 0.00 | 0.00 | 0.00 | 68 | 1016.3 |
| 20260507021549 | 46 | 226 | 0.0 | 0.0 | 0.00 | 0.00 | 0.00 | 68 | 1016.5 |
| 20260507021045 | 46 | 226 | 0.0 | 0.0 | 0.00 | 0.00 | 0.00 | 68 | 1016.2 |
| 20260507020544 | 46 | 226 | 0.0 | 0.0 | 0.00 | 0.00 | 0.00 | 65 | 1016.5 |
| 20260507020039 | 47 | 225 | 0.0 | 0.0 | 0.00 | 0.00 | 0.00 | 63 | 1016.3 |
| 20260507015538 | 47 | 225 | 0.0 | 0.0 | 0.00 | 0.00 | 0.00 | 60 | 1016.5 |
| 20260507015035 | 47 | 236 | 0.0 | 0.0 | 0.00 | 0.00 | 0.00 | 60 | 1016.2 |